Wilmington, OH

7:24 PM EST on January 29, 2015 (GMT -0500)
Little House On The Prairie | Change Station
CLOSE
Current Station
Personal Weather Station
Location: Wilmington, OH
Elevation: 1043 ft
Nearby Weather Stations

Elev 1043 ft 39.45 °N, 83.82 °W | Updated 1 second ago

Overcast
Overcast
33.1 °F
Feels Like 26 °F
N
9.2
Wind Variable Wind from SSW
Gusts 9.2 mph

Today
High -- | Low -- °F
--% Chance of Precip.
Yesterday
High -- | Low -- °F
Precip. -- in
7:45 AM 5:51 PM
Waxing Gibbous, 78% visible
Pressure 30.09 in
Visibility 9.0 miles
Clouds Few 1100 ft
Overcast 1700 ft
Windchill 26 °F
Dew Point 31 °F
Humidity 91%
Rainfall 0.13 in
Snow Depth Not available.
UV 0 out of 12
Pollen .10 out of 12
Air Quality Not available.
Flu Activity Not available.
METAR KILN 292354Z AUTO 29016G24KT 9SM FEW011 OVC017 01/M02 A3002 RMK AO2 PK WND 27027/2255 SLP190 T00111022 10078 20011 51031

More Conditions Fewer Conditions

Pressure 30.09 in
Visibility 9.0 miles
Clouds Few 1100 ft
Overcast 1700 ft
Windchill 26 °F
Dew Point 31 °F
Humidity 91%
Rainfall 0.13 in
Snow Depth Not available.
UV 0 out of 12
Pollen .10 out of 12
Air Quality Not available.
Flu Activity Not available.
METAR KILN 292354Z AUTO 29016G24KT 9SM FEW011 OVC017 01/M02 A3002 RMK AO2 PK WND 27027/2255 SLP190 T00111022 10078 20011 51031

More Conditions Fewer Conditions

10-Day Weather Forecast

Almanac

Astronomy

Jan. 29, 2015 Rise Set
Actual Time
Civil Twilight
Nautical Twilight
Astronomical Twilight
Moon
Length of Visible Light
Length of Day
Tomorrow will be .
, % of the Moon is Illuminated

Today's Extremes

State Highs State Lows

Community

WunderPhotos

Upload Photos

1,791,651 photos uploaded!

WunderBlogs® & News

Nearby

Air Quality

  Air Quality AQ Index Pollutant
Not available.

Snow Depth

Station Depth Elevation

Earthquake Activity

City Distance Mag. Time & Date
Minimum magnitude displayed is 2.5.

Coastal Water Temperatures

Place Temperature

Nearby Weather Stations